Stations météo

réclame
Mon MeteoGroup
Thorney Island, Grande-Bretagne (3872): Température de l'air & dewpoint: 26.11.2020 12:00:00 - 02.12.2020 12:00:00 (GMT)Thorney Island, Grande-Bretagne (3872): Température de l'air -20cm & Température de l'air -100cm: 26.11.2020 12:00:00 - 02.12.2020 12:00:00 (GMT)Thorney Island, Grande-Bretagne (3872): Vitesse du vent & gusts: 26.11.2020 12:00:00 - 02.12.2020 12:00:00 (GMT)Thorney Island, Grande-Bretagne (3872): Direction du vent: 26.11.2020 12:00:00 - 02.12.2020 12:00:00 (GMT)Thorney Island, Grande-Bretagne (3872): reduced air pressure: 26.11.2020 12:00:00 - 02.12.2020 12:00:00 (GMT)Thorney Island, Grande-Bretagne (3872): visibility: 26.11.2020 12:00:00 - 02.12.2020 12:00:00 (GMT)Thorney Island, Grande-Bretagne (3872): Quantités de précipitations: 26.11.2020 12:00:00 - 02.12.2020 12:00:00 (GMT)
Date & Time tt [°C] td [°C] tt -20cm [°C] tt -100cm [°C] ff [km/h] ff [knt] fx [km/h] fx [knt] dd ppp [hPa] vv [km] rr [mm]
02.12.2020 12:00:00 6,3 2,8 - - 4 2 - - W 1018,4 28 0,0
02.12.2020 11:00:00 5,4 3,0 - - 0 0 - - N 1019,4 29 0,0
02.12.2020 10:00:00 4,2 2,7 - - 4 2 - - SE 1019,8 20 0,0
02.12.2020 09:00:00 3,5 1,6 9,4 10,7 0 0 - - N 1020,7 30 0,0
02.12.2020 08:00:00 3,5 1,5 - - 0 0 - - N 1021,1 25 0,0
02.12.2020 07:00:00 3,6 1,9 - - 8 4 - - NW 1021,7 24 0,0
02.12.2020 06:00:00 2,9 1,3 - - 4 2 - - WNW 1021,9 28 0,0
02.12.2020 05:00:00 2,8 1,0 - - 4 2 - - NNW 1022,5 27 0,0
02.12.2020 04:00:00 3,4 1,4 - - 9 5 - - NW 1023,4 30 0,0
02.12.2020 03:00:00 3,2 1,0 - - 8 4 - - N 1024,0 40 0,0
02.12.2020 02:00:00 3,0 1,0 - - 8 4 - - N 1024,7 30 0,0
02.12.2020 01:00:00 4,1 1,4 - - 11 6 - - NNW 1025,0 30 0,0
02.12.2020 00:00:00 4,3 1,5 - - 11 6 - - NW 1025,4 40 0,0
01.12.2020 23:00:00 4,4 1,7 - - 9 5 - - NW 1025,9 40 0,0
01.12.2020 22:00:00 4,0 1,7 - - 5 3 - - NNW 1026,1 45 0,0
01.12.2020 21:00:00 3,6 1,6 - - 5 3 - - SSW 1026,1 35 0,0
01.12.2020 20:00:00 3,4 1,0 - - 8 4 - - NW 1025,8 27 0,0
01.12.2020 19:00:00 3,6 1,0 - - 11 6 - - NW 1026,2 35 0,0
01.12.2020 18:00:00 3,5 1,2 - - 9 5 - - W 1026,2 30 0,0
01.12.2020 17:00:00 4,8 1,2 - - 5 3 - - WNW 1025,9 35 0,0
01.12.2020 16:00:00 6,3 1,8 - - 13 7 - - NNW 1025,9 45 0,0
01.12.2020 15:00:00 7,3 2,1 - - 13 7 - - N 1025,8 40 0,0
01.12.2020 14:00:00 8,0 2,0 - - 18 10 - - N 1025,8 35 0,0
01.12.2020 13:00:00 8,0 2,1 - - 18 10 - - NNW 1026,1 30 0,0
01.12.2020 12:00:00 6,8 2,0 - - 16 9 - - NNW 1026,5 24 0,0
01.12.2020 11:00:00 6,9 2,3 - - 15 8 - - NNW 1026,5 28 0,0
01.12.2020 10:00:00 5,8 1,9 - - 11 6 - - NW 1026,5 45 0,0
01.12.2020 09:00:00 4,3 1,3 10,0 11,0 11 6 - - NW 1026,4 40 0,0
01.12.2020 08:00:00 2,6 0,6 - - 11 6 - - WNW 1026,1 40 0,0
01.12.2020 07:00:00 3,0 0,8 - - 13 7 - - NW 1025,6 28 0,0
01.12.2020 06:00:00 3,0 1,1 - - 11 6 - - NW 1025,3 35 0,0
01.12.2020 05:00:00 3,8 1,4 - - 13 7 - - WNW 1024,6 40 0,0
01.12.2020 04:00:00 4,2 1,8 - - 11 6 - - NW 1024,5 30 0,0
01.12.2020 03:00:00 5,0 2,2 - - 13 7 - - NW 1024,5 30 0,0
01.12.2020 02:00:00 5,4 1,9 - - 9 5 - - NNW 1024,1 40 0,0
01.12.2020 01:00:00 6,3 2,3 - - 13 7 - - NNW 1023,7 35 0,0
01.12.2020 00:00:00 7,1 2,0 - - 13 7 - - NNW 1023,2 45 0,0
30.11.2020 23:00:00 8,7 3,8 - - 18 10 50 27 NNW 1022,7 40 0,0
30.11.2020 22:00:00 9,8 7,8 - - 18 10 - - WNW 1021,6 9 0,0
30.11.2020 21:00:00 9,8 7,6 - - 21 11 - - WNW 1021,5 35 0,0
30.11.2020 20:00:00 9,3 7,2 - - 18 10 - - WNW 1021,3 23 0,0
30.11.2020 19:00:00 9,4 7,3 - - 22 12 - - W 1021,6 15 0,0
30.11.2020 18:00:00 9,4 7,4 - - 24 13 - - W 1021,9 12 0,0
30.11.2020 17:00:00 9,4 7,6 - - 22 12 - - W 1021,9 14 0,2
30.11.2020 16:00:00 9,2 7,4 - - 18 10 - - W 1022,7 10 0,0
30.11.2020 15:00:00 9,1 7,3 - - 18 10 - - W 1023,2 8 0,0
30.11.2020 14:00:00 9,0 7,1 - - 22 12 - - W 1023,6 9 0,0
30.11.2020 13:00:00 7,7 7,0 - - 16 9 - - WSW 1024,7 6 0,0
30.11.2020 12:00:00 5,8 5,4 - - 11 6 - - W 1025,6 6 0,0
30.11.2020 11:00:00 4,5 4,2 - - 11 6 - - W 1026,8 6 0,0
30.11.2020 10:00:00 3,8 3,6 - - 18 10 - - W 1027,1 4,3 0,0
30.11.2020 09:00:00 4,8 4,6 10,2 11,2 11 6 - - W 1027,1 0,2 0,0
30.11.2020 08:00:00 4,4 4,1 - - 9 5 - - WNW 1027,2 0,5 0,0
30.11.2020 07:00:00 3,9 3,6 - - 8 4 - - WNW 1027,2 0,2 0,0
30.11.2020 06:00:00 4,1 3,7 - - 9 5 - - W 1027,2 0,2 0,0
30.11.2020 05:00:00 4,5 4,0 - - 2 1 - - WNW 1027,1 0,6 0,0
30.11.2020 04:00:00 4,7 4,2 - - 5 3 - - N 1027,3 1,9 0,0
30.11.2020 03:00:00 5,0 4,4 - - 8 4 - - NW 1027,4 3,2 0,0
30.11.2020 02:00:00 5,4 4,7 - - 8 4 - - W 1027,3 2,6 0,0
30.11.2020 01:00:00 5,4 4,6 - - 9 5 - - WNW 1027,5 2,6 0,0
30.11.2020 00:00:00 5,4 4,7 - - 4 2 - - NNW 1027,7 2,8 0,0
29.11.2020 23:00:00 5,5 4,6 - - 5 3 - - W 1027,7 3,0 0,0
29.11.2020 22:00:00 5,9 4,9 - - 0 0 - - N 1027,5 2,8 0,0
29.11.2020 21:00:00 5,7 4,8 - - 5 3 - - NNW 1027,5 2,8 0,0
29.11.2020 20:00:00 6,2 5,0 - - 0 0 - - N 1027,3 3,7 0,0
29.11.2020 19:00:00 6,6 5,3 - - 4 2 - - NNE 1027,3 4,0 0,0
29.11.2020 18:00:00 6,6 5,4 - - 5 3 - - E 1026,9 5 0,0
29.11.2020 17:00:00 6,8 5,4 - - 5 3 - - ENE 1026,6 5 0,0
29.11.2020 16:00:00 7,6 5,9 - - 9 5 - - NNE 1026,4 6 0,0
29.11.2020 15:00:00 8,1 6,1 - - 9 5 - - NE 1026,1 7 0,0
29.11.2020 14:00:00 8,8 6,6 - - 9 5 - - NE 1026,0 9 0,0
29.11.2020 13:00:00 9,1 6,6 - - 11 6 - - NE 1025,7 10 0,0
29.11.2020 12:00:00 9,4 7,0 - - 9 5 - - NE 1025,7 8 0,0
29.11.2020 11:00:00 8,9 6,7 - - 13 7 - - NE 1025,6 10 0,0
29.11.2020 10:00:00 8,7 7,0 - - 8 4 - - NNE 1025,1 8 0,0
29.11.2020 09:00:00 6,9 6,4 10,5 11,2 9 5 - - NNE 1024,7 6 0,0
29.11.2020 08:00:00 4,7 3,9 - - 9 5 - - NNE 1024,3 3,4 0,0
29.11.2020 07:00:00 5,5 4,8 - - 11 6 - - NNE 1023,6 4,7 0,0
29.11.2020 06:00:00 5,8 5,2 - - 13 7 - - NNE 1023,3 3,9 0,0
29.11.2020 05:00:00 6,0 5,2 - - 13 7 - - NNE 1022,8 4,5 0,0
29.11.2020 04:00:00 6,7 5,7 - - 15 8 - - NNE 1022,6 6 0,0
29.11.2020 03:00:00 6,1 5,2 - - 13 7 - - NNE 1022,4 5 0,0
29.11.2020 02:00:00 6,1 5,2 - - 13 7 - - NE 1022,3 5 0,2
29.11.2020 01:00:00 6,7 5,6 - - 13 7 - - NNE 1022,0 6 0,0
29.11.2020 00:00:00 6,7 5,8 - - 13 7 - - NE 1021,8 6 0,0
28.11.2020 23:00:00 6,6 5,5 - - 13 7 - - NE 1021,5 6 0,0
28.11.2020 22:00:00 7,0 6,1 - - 13 7 - - NE 1021,2 5 0,0
28.11.2020 21:00:00 7,3 6,3 - - 13 7 - - NE 1020,8 5 0,0
28.11.2020 20:00:00 7,7 6,7 - - 13 7 - - NE 1020,2 6 0,0
28.11.2020 19:00:00 7,8 6,9 - - 13 7 - - NE 1019,6 6 0,0
28.11.2020 18:00:00 6,9 5,9 - - 11 6 - - NE 1019,0 6 0,0
28.11.2020 17:00:00 7,8 6,2 - - 9 5 - - NE 1018,6 9 0,0
28.11.2020 16:00:00 10,4 7,8 - - 9 5 - - E 1018,1 17 0,0
28.11.2020 15:00:00 11,8 7,9 - - 13 7 - - E 1017,6 35 0,0
28.11.2020 14:00:00 12,3 8,8 - - 11 6 - - E 1017,1 22 0,0
28.11.2020 13:00:00 12,2 9,2 - - 16 9 - - E 1017,1 16 0,0
28.11.2020 12:00:00 11,4 9,1 - - 21 11 - - E 1016,8 11 0,0
28.11.2020 11:00:00 11,7 9,6 - - 16 9 - - E 1016,6 10 0,0
28.11.2020 10:00:00 10,6 9,2 - - 16 9 - - E 1016,4 7 0,0
28.11.2020 09:00:00 10,2 9,1 10,7 11,4 16 9 - - E 1016,0 7 0,0
28.11.2020 08:00:00 9,5 8,4 - - 16 9 - - E 1015,5 6 0,0
28.11.2020 07:00:00 9,6 8,4 - - 16 9 - - E 1014,9 7 0,0
28.11.2020 06:00:00 9,5 8,3 - - 18 10 - - E 1014,4 6 0,0
28.11.2020 05:00:00 9,2 7,9 - - 15 8 - - E 1014,4 6 0,0
28.11.2020 04:00:00 8,9 7,8 - - 16 9 - - E 1014,1 6 0,0
28.11.2020 03:00:00 8,5 7,3 - - 13 7 - - ENE 1014,4 5 0,0
28.11.2020 02:00:00 8,8 7,6 - - 13 7 - - E 1014,6 5 0,0
28.11.2020 01:00:00 8,5 7,2 - - 15 8 - - ENE 1014,3 5 0,0
28.11.2020 00:00:00 8,6 7,1 - - 15 8 - - E 1014,8 6 0,0
27.11.2020 23:00:00 8,6 7,0 - - 15 8 - - ENE 1014,7 7 0,0
27.11.2020 22:00:00 8,3 6,7 - - 9 5 - - ENE 1015,1 8 0,0
27.11.2020 21:00:00 7,6 6,2 - - 13 7 - - NE 1015,1 10 0,0
27.11.2020 20:00:00 7,3 5,7 - - 16 9 - - NE 1015,2 12 0,0
27.11.2020 19:00:00 7,0 5,0 - - 15 8 - - NE 1015,5 17 0,0
27.11.2020 18:00:00 6,9 4,5 - - 15 8 - - NE 1015,6 19 0,0
27.11.2020 17:00:00 7,1 4,8 - - 16 9 - - NE 1015,7 30 0,0
27.11.2020 16:00:00 7,4 4,8 - - 15 8 - - NE 1016,0 27 0,0
27.11.2020 15:00:00 7,8 4,9 - - 13 7 - - NE 1016,0 30 0,0
27.11.2020 14:00:00 8,3 5,1 - - 11 6 - - ENE 1016,3 40 0,0
27.11.2020 13:00:00 7,6 4,1 - - 11 6 - - ENE 1017,2 50 0,0
27.11.2020 12:00:00 7,3 3,3 - - 16 9 - - NE 1017,8 45 0,0
27.11.2020 11:00:00 6,5 3,7 - - 13 7 - - ENE 1018,7 50 0,0
27.11.2020 10:00:00 6,0 2,8 - - 21 11 - - NE 1019,1 45 0,0
27.11.2020 09:00:00 6,1 2,9 10,7 11,4 21 11 - - NE 1019,2 50 0,0
27.11.2020 08:00:00 5,8 3,3 - - 13 7 - - NE 1019,3 40 0,0
27.11.2020 07:00:00 5,8 3,5 - - 15 8 - - NE 1019,1 45 0,0
27.11.2020 06:00:00 5,8 4,0 - - 13 7 - - NE 1019,4 35 0,2
27.11.2020 05:00:00 5,6 4,2 - - 11 6 - - NE 1019,6 12 0,2
27.11.2020 04:00:00 6,2 4,2 - - 9 5 - - ENE 1019,8 17 0,2
27.11.2020 03:00:00 6,8 3,7 - - 13 7 - - NE 1020,1 30 0,0
27.11.2020 02:00:00 6,7 3,9 - - 16 9 - - NE 1020,0 30 0,0
27.11.2020 01:00:00 7,0 4,1 - - 13 7 - - NE 1020,2 30 0,0
27.11.2020 00:00:00 7,1 3,9 - - 15 8 - - NE 1020,2 35 0,0
26.11.2020 23:00:00 7,2 4,1 - - 13 7 - - NE 1020,6 30 0,0
26.11.2020 22:00:00 7,2 4,7 - - 15 8 - - ENE 1020,9 23 0,0
26.11.2020 21:00:00 7,5 4,7 - - 11 6 - - ENE 1020,8 22 0,0
26.11.2020 20:00:00 7,3 4,8 - - 11 6 - - ENE 1020,8 20 0,0
26.11.2020 19:00:00 7,5 5,0 - - 15 8 - - NE 1020,9 19 0,0
26.11.2020 18:00:00 7,5 4,9 - - 13 7 - - NE 1020,8 19 0,0
26.11.2020 17:00:00 7,5 5,1 - - 8 4 - - NE 1020,3 30 0,0
26.11.2020 16:00:00 7,6 5,2 - - 13 7 - - NE 1020,0 29 0,0
26.11.2020 15:00:00 7,6 5,3 - - 9 5 - - NNE 1020,1 30 0,0
26.11.2020 14:00:00 7,7 5,0 - - 11 6 - - NNE 1020,3 35 0,0
26.11.2020 13:00:00 7,5 5,6 - - 11 6 - - NE 1020,4 40 0,0
26.11.2020 12:00:00 7,1 5,6 - - 16 9 - - NE 1020,8 11 0,0

tt = Température de l'air
td = dewpoint
tt -20cm = Température de l'air -20cm
tt -100cm = Température de l'air -100cm
ff = Vitesse du vent
fx = gusts
dd = Direction du vent
ppp = reduced air pressure
vv = visibility
rr = Quantités de précipitations

stations d'obs. à proximité